Temp
3 3 3 3 3 2 2 3 3 3 3 3 2 2 2 2 2 2 2 2 2 2 1 0 -0 -0 -0 0 0 0 0 0 1 1 1 1 0 -1 -1 -0 -1 -1 -1
2 3 3 3 3 3 3 3 2 2 2 2 2 2 1 1 1 1 1 1 1 0 0 -0 -0 -0 -0 0 0 0 0 0 0 0 0 0 0 0 -1 -1 -0 -2 -1
2 2 2 2 2 2 2 2 2 1 1 1 1 1 0 0 0 1 1 0 0 0 0 0 0 0 -0 -0 -0 -0 -0 -0 -0 -0 0 0 0 -0 -1 -1 -1 -2 -2
2 2 2 2 2 2 2 2 2 1 1 1 1 0 0 0 0 1 1 -0 1 0 1 0 0 -0 -0 -1 -1 -0 -0 -0 -0 -0 -0 -0 -1 -1 -1 -2 -2 -2 -2
1 1 1 2 1 2 1 1 1 1 1 1 0 0 0 -0 0 0 0 -0 0 0 0 0 -0 -0 -0 -1 -1 -0 -0 -0 -0 -0 -0 -1 -1 -2 -3 -3 -3 -3 -3
1 1 1 1 1 1 1 1 1 1 1 0 0 -0 -0 -0 0 0 0 -0 -0 -1 -0 -0 -0 -0 -0 -0 -0 0 -0 -0 -1 -1 -1 -1 -1 -1 -2 -3 -4 -3 -3
0 0 0 0 0 0 0 0 0 0 0 0 -0 -0 1 1 0 -1 -1 -1 -1 -1 -1 -0 -0 -0 -0 -0 -0 -0 -0 -0 -0 -0 -1 -1 -2 -2 -2 -2 -2 -3 -3
0 0 0 0 0 -0 -0 0 1 1 0 -0 0 1 -0 -1 -1 -1 -1 -1 -1 -1 -0 -0 -1 -0 -1 -1 -0 0 0 1 0 -0 -1 -2 -2 -2 -3 -3 -3 -3 -3
-0 -0 -0 -0 -0 -0 -0 0 0 0 0 -1 -1 -2 -2 -2 -2 -1 -1 -1 -1 -1 -1 -0 -1 -1 -1 -1 -1 -0 0 0 -0 -1 -2 -2 -3 -3 -3 -3 -3 -4 -4
0 0 0 0 0 0 -0 -0 -0 -1 -1 -2 -2 -2 -2 -2 -2 -1 -1 -1 -1 -1 -1 -0 -1 -1 -1 -1 -1 -1 -0 -0 -1 -2 -3 -3 -3 -3 -4 -4 -5 -4 -4
-0 -0 -1 -1 -1 -1 -1 -1 -1 -1 -2 -2 -3 -2 -2 -2 -2 -1 -1 -1 -1 -1 -1 -1 -1 -2 -2 -2 -2 -2 -1 -1 -3 -3 -3 -3 -4 -4 -4 -4 -4 -4 -5
-1 -1 -1 -2 -2 -2 -2 -2 -2 -2 -3 -3 -3 -3 -3 -2 -2 -2 -1 -1 -2 -2 -1 -2 -2 -2 -2 -2 -2 -3 -3 -4 -4 -4 -4 -4 -4 -4 -4 -4 -5 -5 -5
-3 -3 -2 -2 -2 -3 -3 -3 -3 -3 -3 -3 -4 -3 -3 -3 -2 -2 -2 -2 -2 -2 -2 -2 -2 -2 -2 -2 -3 -3 -4 -4 -4 -5 -5 -5 -5 -6 -5 -5 -5 -4 -4
-3 -3 -3 -3 -3 -3 -3 -3 -3 -4 -4 -4 -4 -4 -4 -4 -5 -4 -3 -2 -3 -2 -3 -3 -3 -3 -3 -3 -3 -4 -4 -5 -5 -5 -6 -6 -7 -6 -6 -5 -5 -4 -4
-4 -3 -3 -3 -3 -3 -4 -4 -4 -4 -4 -4 -4 -5 -5 -5 -5 -6 -5 -4 -4 -3 -4 -4 -3 -3 -3 -4 -4 -4 -5 -5 -5 -6 -6 -6 -6 -6 -6 -5 -5 -5 -5
-4 -4 -4 -4 -4 -4 -4 -4 -4 -4 -4 -4 -5 -5 -6 -7 -6 -6 -5 -4 -4 -5 -5 -4 -4 -4 -4 -4 -4 -5 -5 -5 -5 -6 -7 -7 -7 -7 -5 -5 -5 -5 -5
-5 -5 -5 -5 -5 -5 -5 -5 -5 -5 -5 -5 -5 -5 -6 -6 -6 -6 -5 -5 -5 -5 -6 -6 -6 -5 -5 -4 -5 -5 -5 -5 -6 -7 -7 -8 -7 -6 -6 -6 -6 -5 -6
-6 -5 -5 -5 -5 -5 -5 -5 -5 -5 -5 -5 -5 -5 -5 -6 -6 -7 -7 -6 -6 -7 -7 -6 -6 -6 -5 -5 -5 -5 -6 -6 -7 -7 -8 -8 -7 -6 -6 -6 -6 -6 -6
-6 -5 -5 -5 -5 -5 -5 -5 -5 -5 -5 -5 -5 -5 -5 -6 -7 -7 -7 -8 -7 -7 -7 -7 -7 -7 -6 -6 -6 -6 -6 -7 -7 -8 -8 -8 -8 -7 -7 -7 -7 -7 -7
-6 -6 -6 -6 -6 -6 -6 -6 -5 -5 -5 -5 -5 -6 -6 -6 -8 -8 -8 -8 -8 -8 -8 -8 -8 -7 -8 -7 -7 -6 -6 -7 -7 -8 -8 -9 -9 -9 -8 -8 -8 -8 -8
-7 -7 -7 -7 -7 -6 -6 -6 -6 -5 -5 -5 -6 -7 -8 -9 -9 -8 -8 -8 -8 -8 -9 -9 -8 -8 -8 -8 -8 -7 -7 -7 -8 -8 -9 -9 -9 -9 -9 -8 -8 -8 -8
-8 -8 -8 -8 -7 -7 -7 -7 -6 -6 -6 -6 -7 -8 -9 -9 -9 -9 -9 -9 -9 -9 -9 -9 -9 -9 -9 -9 -8 -8 -8 -8 -8 -8 -9 -9 -10 -10 -9 -9 -9 -9 -8
-9 -9 -9 -9 -9 -8 -8 -7 -7 -7 -7 -7 -8 -8 -9 -9 -9 -9 -8 -8 -8 -8 -8 -8 -8 -8 -8 -8 -9 -9 -9 -9 -9 -9 -9 -9 -9 -9 -10 -10 -10 -10 -10
-10 -10 -11 -11 -10 -9 -9 -9 -8 -8 -8 -8 -8 -8 -8 -8 -8 -8 -8 -8 -8 -8 -8 -8 -8 -7 -7 -8 -8 -8 -9 -9 -9 -9 -9 -9 -9 -9 -9 -10 -10 -10 -10
-11 -11 -12 -12 -11 -10 -10 -10 -10 -9 -9 -9 -8 -8 -8 -8 -8 -8 -8 -8 -8 -8 -8 -8 -8 -8 -8 -7 -8 -8 -8 -8 -8 -9 -9 -9 -9 -9 -9 -9 -9 -9 -10
-12 -12 -12 -12 -12 -12 -11 -11 -11 -10 -10 -9 -9 -9 -9 -9 -9 -9 -9 -9 -9 -9 -8 -8 -8 -8 -8 -8 -8 -8 -8 -8 -8 -8 -8 -8 -9 -9 -9 -9 -9 -9 -9
Height
3094 3099 3102 3107 3109 3113 3116 3120 3125 3127 3128 3129 3132 3134 3135 3136 3135 3137 3137 3139 3139 3139 3139 3138 3138 3137 3136 3135 3135 3133 3132 3130 3127 3126 3126 3125 3124 3123 3123 3122 3122 3121 3119
3094 3096 3098 3102 3105 3109 3112 3116 3120 3122 3123 3125 3128 3128 3130 3130 3130 3131 3132 3133 3134 3133 3132 3131 3130 3130 3128 3127 3126 3125 3124 3121 3119 3117 3116 3115 3115 3114 3114 3114 3114 3114 3113
3092 3094 3096 3099 3102 3104 3107 3110 3114 3116 3117 3121 3123 3124 3123 3124 3126 3125 3125 3126 3128 3126 3125 3123 3122 3123 3121 3119 3118 3116 3114 3113 3111 3109 3107 3106 3106 3105 3105 3106 3105 3104 3104
3087 3090 3092 3095 3098 3099 3102 3105 3108 3111 3112 3115 3116 3117 3117 3119 3120 3119 3120 3120 3119 3119 3117 3115 3114 3114 3113 3111 3110 3108 3106 3104 3102 3100 3099 3098 3097 3098 3097 3097 3097 3096 3097
3083 3085 3086 3088 3090 3094 3097 3100 3103 3106 3108 3109 3111 3111 3113 3113 3114 3115 3113 3113 3111 3112 3110 3109 3108 3106 3104 3103 3101 3099 3097 3095 3093 3091 3090 3089 3088 3088 3089 3089 3088 3087 3087
3079 3081 3084 3085 3088 3091 3093 3096 3099 3102 3102 3104 3105 3105 3105 3107 3106 3108 3106 3106 3106 3105 3103 3101 3100 3097 3095 3093 3091 3089 3087 3084 3082 3081 3080 3080 3079 3079 3078 3079 3079 3078 3079
3078 3078 3079 3081 3083 3087 3089 3090 3093 3096 3097 3098 3099 3098 3099 3101 3100 3101 3101 3099 3099 3098 3094 3093 3091 3088 3086 3084 3081 3079 3076 3073 3072 3071 3070 3070 3069 3070 3069 3070 3071 3071 3070
3074 3076 3077 3078 3080 3083 3084 3086 3086 3088 3090 3092 3094 3092 3093 3095 3094 3094 3093 3092 3090 3089 3086 3084 3082 3080 3077 3075 3072 3070 3066 3063 3061 3060 3060 3060 3061 3061 3061 3061 3062 3062 3063
3065 3067 3068 3069 3072 3076 3078 3079 3079 3080 3083 3087 3088 3087 3086 3088 3086 3085 3085 3084 3082 3080 3076 3075 3074 3071 3069 3067 3064 3060 3057 3053 3052 3050 3051 3052 3052 3052 3053 3054 3054 3055 3056
3058 3060 3061 3063 3065 3067 3069 3070 3071 3073 3076 3080 3082 3081 3080 3080 3080 3078 3076 3076 3073 3071 3069 3066 3065 3064 3061 3059 3055 3051 3048 3045 3043 3043 3043 3043 3043 3044 3045 3047 3046 3048 3049
3055 3055 3056 3058 3060 3062 3064 3065 3067 3069 3072 3075 3076 3075 3075 3073 3071 3070 3068 3067 3065 3064 3062 3060 3058 3055 3052 3050 3047 3043 3040 3038 3036 3035 3035 3035 3036 3037 3038 3040 3041 3042 3044
3053 3052 3053 3055 3058 3059 3059 3061 3062 3064 3066 3069 3069 3069 3067 3065 3064 3062 3060 3059 3058 3057 3054 3052 3050 3047 3045 3041 3038 3036 3033 3031 3029 3028 3028 3028 3029 3030 3032 3034 3036 3037 3039
3047 3048 3049 3051 3052 3054 3055 3056 3056 3059 3062 3062 3062 3061 3060 3058 3056 3053 3052 3051 3049 3048 3047 3044 3042 3039 3037 3033 3030 3028 3026 3024 3023 3022 3021 3022 3023 3024 3026 3028 3030 3033 3035
3043 3044 3045 3045 3047 3048 3048 3049 3050 3053 3054 3054 3053 3054 3053 3050 3048 3045 3042 3041 3040 3038 3038 3036 3033 3032 3029 3026 3023 3022 3021 3019 3017 3016 3015 3016 3017 3019 3020 3023 3026 3028 3030
3036 3035 3035 3036 3037 3038 3039 3041 3043 3044 3045 3045 3045 3045 3044 3042 3040 3038 3036 3034 3033 3030 3029 3027 3026 3024 3021 3019 3017 3016 3014 3013 3011 3011 3011 3012 3012 3013 3015 3018 3020 3023 3025
3030 3030 3030 3029 3027 3030 3030 3031 3033 3034 3035 3036 3036 3036 3034 3033 3032 3030 3028 3025 3024 3021 3022 3020 3017 3016 3014 3013 3011 3009 3008 3006 3005 3005 3006 3006 3007 3009 3011 3013 3016 3018 3020
3024 3024 3023 3023 3023 3022 3023 3024 3024 3024 3025 3026 3026 3026 3025 3024 3022 3020 3018 3016 3015 3014 3013 3012 3010 3008 3008 3007 3005 3003 3002 3001 3000 2999 3000 3001 3002 3004 3006 3008 3010 3013 3015
3017 3017 3016 3016 3015 3015 3015 3015 3015 3015 3015 3015 3014 3014 3014 3012 3012 3011 3010 3008 3008 3006 3005 3004 3003 3002 3001 3001 2998 2997 2996 2994 2994 2994 2995 2996 2997 2999 3001 3003 3005 3007 3009
3008 3008 3007 3007 3006 3005 3005 3004 3004 3004 3003 3003 3002 3002 3002 3001 3001 3002 3001 2999 2999 2999 2997 2997 2996 2995 2994 2993 2991 2990 2990 2989 2988 2989 2989 2990 2992 2994 2995 2997 2999 3001 3002
3000 2999 2998 2997 2997 2996 2995 2994 2993 2992 2991 2990 2990 2990 2989 2990 2991 2991 2991 2990 2990 2990 2989 2989 2988 2987 2985 2985 2984 2983 2983 2983 2982 2982 2982 2983 2984 2986 2989 2991 2992 2993 2995
2990 2990 2989 2989 2988 2987 2986 2985 2983 2982 2981 2980 2979 2979 2979 2980 2981 2982 2982 2981 2981 2980 2980 2980 2980 2979 2978 2976 2976 2976 2976 2976 2976 2975 2975 2976 2977 2979 2981 2982 2984 2985 2987
2981 2980 2980 2979 2978 2977 2976 2975 2974 2973 2972 2972 2971 2970 2971 2972 2972 2973 2972 2972 2971 2971 2971 2971 2971 2970 2969 2968 2968 2968 2968 2968 2968 2967 2968 2968 2969 2970 2972 2974 2976 2977 2979
2971 2970 2970 2969 2969 2968 2968 2967 2966 2965 2965 2964 2964 2963 2963 2963 2963 2963 2963 2963 2962 2962 2961 2961 2961 2960 2960 2959 2959 2959 2959 2959 2959 2959 2959 2960 2961 2961 2962 2964 2966 2967 2969
2964 2962 2962 2962 2962 2961 2960 2959 2958 2958 2957 2956 2956 2956 2955 2955 2955 2955 2954 2954 2953 2953 2952 2952 2951 2950 2950 2950 2950 2950 2950 2950 2950 2950 2950 2950 2951 2951 2952 2953 2955 2956 2958
2956 2954 2954 2954 2954 2954 2953 2952 2951 2951 2950 2950 2949 2949 2948 2948 2947 2947 2947 2946 2946 2945 2944 2943 2943 2942 2942 2941 2941 2940 2940 2940 2940 2940 2939 2939 2940 2941 2941 2942 2943 2944 2945
2951 2950 2948 2947 2946 2945 2945 2945 2944 2944 2944 2943 2943 2942 2941 2940 2940 2939 2939 2938 2937 2936 2936 2935 2934 2933 2933 2932 2932 2931 2931 2930 2929 2929 2928 2928 2928 2929 2929 2930 2931 2932 2933
Wind_Speed
9 11 13 15 16 16 18 18 19 19 18 18 18 18 19 19 19 18 18 17 17 18 18 19 21 22 24 27 29 31 32 34 38 41 36 34 33 31 28 29 25 30 31
12 12 14 16 18 19 20 20 20 19 19 19 19 19 19 18 17 15 15 16 18 19 20 22 23 25 27 28 30 32 33 34 35 35 33 31 30 30 29 29 28 30 30
14 13 14 15 16 18 19 19 20 20 20 19 20 19 18 18 18 18 17 20 22 23 23 24 25 27 29 30 30 30 31 32 33 33 33 32 32 30 30 28 31 32 32
17 16 15 16 17 18 19 21 22 22 21 21 20 20 21 21 21 20 22 24 24 24 25 25 26 27 28 29 30 30 31 31 33 33 33 33 32 31 28 29 28 29 33
21 19 18 17 16 18 20 21 22 22 23 23 23 24 24 22 23 25 26 26 25 26 26 26 27 28 30 32 32 32 33 33 33 33 33 33 32 28 32 34 34 35 30
21 19 17 17 17 18 21 22 23 24 24 24 24 24 24 25 26 27 26 25 25 25 25 26 28 29 32 34 35 35 35 36 34 34 33 32 32 31 32 32 32 30 33
22 20 18 18 19 21 22 23 24 25 26 26 26 25 26 28 27 25 27 25 26 26 26 28 29 29 31 33 33 33 34 34 34 33 32 31 31 30 30 28 28 27 27
26 26 25 24 24 26 26 25 25 25 25 26 27 27 27 25 25 25 26 25 26 28 29 29 30 30 30 31 32 33 34 34 32 33 31 30 29 28 28 26 26 25 25
26 26 26 26 26 27 27 26 24 23 24 25 24 23 24 25 25 25 25 26 28 29 29 30 30 30 30 31 32 32 33 31 29 29 28 28 27 27 25 25 22 23 22
26 26 26 24 23 22 22 22 21 20 20 22 23 24 24 26 26 25 26 28 27 27 28 29 30 29 30 31 32 33 32 28 25 25 25 26 25 25 23 25 22 21 18
21 22 21 21 21 21 21 20 21 20 22 22 23 24 25 26 27 28 28 29 28 26 27 28 29 30 30 31 31 32 30 27 22 22 23 23 23 22 22 22 20 20 18
19 18 19 19 20 20 21 21 21 21 22 23 24 25 26 28 29 31 31 28 25 25 26 26 28 28 29 30 30 30 26 23 21 20 21 22 22 21 21 20 21 20 19
19 19 20 20 20 21 21 22 21 22 23 23 24 27 28 29 31 31 29 25 27 27 26 26 26 26 27 28 28 27 25 23 22 21 20 20 19 19 19 20 19 19 19
24 25 25 25 25 25 24 23 23 24 26 26 26 28 30 30 32 31 29 26 28 29 25 23 25 27 26 26 27 25 23 22 22 20 19 18 18 19 19 19 19 20 20
20 22 23 26 29 28 27 27 28 30 28 27 26 30 32 33 32 29 32 34 29 26 23 23 25 24 24 24 25 24 22 21 21 21 20 19 18 19 20 21 20 20 17
20 25 29 28 21 27 23 23 27 28 28 29 33 35 35 29 29 32 34 31 23 22 21 22 23 23 23 23 23 22 22 21 20 20 20 20 17 17 18 19 19 19 20
21 23 25 25 25 25 26 28 30 33 34 34 36 36 35 31 33 31 30 29 22 22 20 20 22 22 22 22 22 21 21 20 20 20 20 18 17 19 20 21 22 19 21
23 25 26 27 28 29 30 31 33 34 35 35 35 35 34 35 32 31 32 28 19 20 21 20 21 23 23 23 21 20 20 20 18 18 17 18 19 20 19 19 20 22 22
24 25 26 26 27 28 29 31 33 34 36 37 38 37 36 36 32 34 32 26 24 23 24 24 24 26 26 23 21 19 19 18 18 20 22 22 23 22 21 22 22 23 22
24 24 24 24 25 25 26 26 27 28 29 30 32 33 34 33 30 32 27 25 29 29 26 26 26 24 24 24 22 20 18 17 18 19 20 24 26 28 26 25 25 27 31
25 25 25 25 25 25 26 26 26 26 25 24 24 25 26 24 24 25 27 30 32 27 26 26 26 24 22 22 23 22 20 19 19 18 20 23 27 26 23 25 26 27 30
26 25 25 25 25 25 26 26 26 24 23 21 19 21 22 24 26 28 28 27 26 26 25 25 24 24 25 24 23 24 23 21 21 23 23 22 27 27 33 31 27 25 25
27 27 27 26 24 24 24 24 23 22 21 21 20 20 22 23 24 25 25 25 25 25 25 25 26 26 26 24 24 24 24 25 25 25 25 26 27 27 31 33 36 35 33
26 25 21 19 20 21 20 20 19 19 19 18 18 18 19 20 21 21 21 22 22 21 22 23 23 23 22 23 24 25 26 26 27 28 29 30 29 30 32 34 36 36 40
20 19 21 20 17 17 16 15 15 16 16 16 16 17 17 17 18 19 19 20 20 19 20 21 21 21 22 23 24 25 26 27 30 32 32 33 33 33 33 34 33 36 36
17 16 16 16 15 16 17 18 19 19 19 20 19 19 19 19 20 20 21 21 22 22 22 23 24 25 25 25 26 26 27 27 28 29 32 35 37 36 35 36 36 36 36
Wind_Direction
225 225 221 218 221 218 213 218 223 228 228 229 234 240 243 254 264 272 276 278 279 282 284 284 284 286 283 284 286 287 286 287 288 287 285 289 292 293 290 290 277 277 287
235 225 225 227 228 230 230 226 225 227 228 232 234 237 246 258 263 269 272 284 286 286 285 285 287 288 288 287 287 288 287 286 284 285 286 281 279 281 292 291 285 282 276
236 225 226 234 235 231 230 226 227 228 229 229 231 238 251 262 271 276 280 285 288 289 291 291 291 290 290 291 290 290 290 289 287 285 282 278 278 276 279 282 288 280 275
238 237 257 241 236 235 233 232 232 233 234 235 240 246 256 262 274 279 281 286 289 290 292 294 294 295 294 293 293 293 292 290 289 287 284 279 276 272 274 278 279 276 265
249 255 258 246 240 235 233 235 237 238 241 245 249 254 261 267 275 279 283 287 290 290 291 292 293 294 295 295 295 295 293 291 288 286 283 279 277 273 266 269 271 273 261
232 232 235 238 239 241 241 242 245 247 249 252 255 258 265 270 275 278 281 283 286 287 290 293 295 298 298 297 296 294 292 289 287 284 281 278 275 272 268 271 268 272 277
227 234 240 244 245 247 247 247 249 253 253 254 255 260 265 269 270 274 278 281 284 287 291 295 297 299 300 301 300 299 296 292 287 283 280 276 271 270 269 272 270 267 265
234 238 243 248 253 257 257 254 252 251 252 255 256 258 261 265 269 271 276 280 285 289 293 295 296 300 301 301 301 300 298 294 287 279 276 272 270 268 267 263 263 265 266
247 249 251 253 253 255 254 248 246 247 250 253 255 255 259 264 269 274 278 283 289 295 298 298 300 301 301 301 304 306 304 297 288 276 270 269 268 265 264 261 261 261 258
246 248 250 251 251 250 251 253 252 250 250 253 256 259 263 269 274 280 285 290 294 298 299 299 300 300 300 302 305 307 307 299 284 271 267 266 263 262 258 257 250 252 252
249 248 245 243 244 246 244 245 248 250 251 254 260 264 268 274 280 285 290 292 293 294 295 295 296 297 299 300 304 305 308 299 281 272 267 264 262 259 255 252 247 246 242
245 243 240 239 239 242 246 248 250 253 254 255 261 266 274 282 287 289 291 288 287 288 290 293 295 298 300 300 303 303 303 296 282 272 267 263 259 255 251 248 248 244 231
250 247 246 247 250 250 248 251 252 253 254 257 265 274 283 288 290 290 289 286 287 287 287 289 293 298 299 302 303 302 297 293 285 277 272 266 261 254 250 245 239 234 220
246 243 242 243 244 246 248 248 250 254 257 262 268 277 284 287 289 293 292 291 293 287 287 287 289 292 296 301 302 299 293 289 286 279 272 268 259 250 242 235 235 233 227
250 249 246 247 247 246 245 247 247 249 255 261 261 275 279 281 284 283 284 291 291 286 289 288 285 290 295 300 300 297 291 287 280 275 270 263 256 249 242 236 233 228 224
258 255 256 267 264 256 248 248 255 258 261 263 270 276 283 279 279 282 286 287 287 282 281 280 288 293 296 298 297 294 290 286 281 273 266 257 249 247 246 239 226 226 233
262 262 264 265 264 262 263 262 262 263 265 264 265 267 271 273 274 282 294 293 286 277 281 283 288 290 292 294 295 293 290 287 280 271 263 254 240 243 241 236 230 235 244
267 266 265 264 264 265 265 265 265 265 267 268 268 270 272 273 278 280 288 286 289 282 283 284 286 287 287 288 292 293 289 286 280 269 258 249 249 244 236 240 247 240 234
276 274 270 267 266 266 266 267 267 266 265 265 267 269 269 270 271 267 281 283 285 289 280 282 287 284 279 282 286 288 288 286 280 267 252 242 242 243 240 246 250 248 245
274 275 274 272 271 271 271 272 273 274 272 268 265 263 264 267 266 269 273 269 278 287 274 278 287 286 277 276 278 280 282 281 278 274 261 251 250 248 244 247 248 248 247
272 271 271 271 273 274 275 277 277 278 277 274 267 261 265 266 266 267 267 272 279 275 275 276 281 281 281 277 274 275 275 275 274 272 264 254 246 244 245 248 256 256 256
269 269 271 272 273 274 277 278 279 278 276 275 271 263 260 260 263 266 269 273 275 275 274 275 276 277 280 279 273 271 272 271 271 271 266 261 255 256 248 249 252 252 250
270 268 267 267 272 274 272 274 275 274 273 271 268 266 266 267 269 271 273 274 276 276 277 277 277 277 277 273 270 271 270 267 267 269 271 270 264 262 252 248 250 251 251
278 275 270 271 271 272 272 272 272 273 274 275 275 274 273 273 275 276 277 277 279 282 283 283 284 285 283 279 275 270 265 264 265 264 264 266 267 265 263 260 259 259 255
279 272 262 257 265 269 272 279 280 278 279 279 278 277 277 278 279 280 282 283 285 285 285 286 286 285 284 283 281 279 276 271 266 264 263 265 265 265 266 265 265 264 263
284 286 284 278 275 277 278 279 276 276 279 281 281 281 280 281 282 283 284 284 284 284 285 285 284 283 283 281 280 280 279 277 275 273 270 268 265 264 264 264 264 264 264